Home > Weather > Kufstein > Past weeks

Flag for Austria Past Weather in Kufstein, Tyrol, Austria — Yesterday and Last 2 Weeks

Now
72 °F

Mild.


Feels Like: 76 °F
Forecast: 56 / 73 °F
Wind: 2 mph from West

Location: Kufstein

Current Time: Jun 30, 2016 at 5:55:09 PM

Latest Report: Jun 30, 2016 at 4:00 PM


Visibility: N/A

Pressure: 29.98 "Hg

Humidity: 62%

Dew Point: 58 °F

Location of KufsteinLocation

Past Weather in Kufstein — Graph

°F

Kufstein Temperature Yesterday

Maximum temperature yesterday: 78 °F (at 3:00 PM)
Minimum temperature yesterday: 56 °F (at 5:00 AM)
Average temperature yesterday: 70 °F

High & Low Weather Summary for the Past Weeks

 TemperatureHumidityPressure
High89 °F (Jun 24, 3:00 PM)97% (Jun 18, 1:00 AM)30.27 "Hg (Jun 18, 1:00 AM)
Low51 °F (Jun 18, 7:00 AM)36% (Jun 24, 6:00 PM)29.44 "Hg (Jun 16, 3:00 PM)
Average65 °F75%30.03 "Hg
* Reported Jun 15 4:00 PM — Jun 30 4:00 PM, Kufstein, Weather by CustomWeather, © 2016

Note: Actual official high and low records may vary slightly from our data, if they occured in-between our weather recording intervals... More about our weather records

Advertising

Kufstein Weather History for the Previous 24 Hours

Scroll right to see more
 ConditionsComfort  
Time TempWeatherWind HumidityBarometerVisibility
4:00 PM
Thu, Jun 30
72 °FMild.2 mph62%29.98 "HgN/A
3:00 PM71 °FMild.2 mph70%30.00 "HgN/A
2:00 PM65 °FMild.1 mph88%30.04 "HgN/A
1:00 PM65 °FFog.1 mph87%30.05 "HgN/A
12:00 PM67 °FMild.2 mph77%30.02 "HgN/A
11:00 AM66 °FMild.2 mph82%30.02 "HgN/A
10:00 AM65 °FFog.2 mph87%30.02 "HgN/A
9:00 AM65 °FMild.1 mph87%30.01 "HgN/A
8:00 AM66 °FMild.1 mph81%29.99 "HgN/A
7:00 AM63 °FOvercast.1 mph91%29.99 "Hg19 mi
6:00 AM63 °FMild.No wind92%29.97 "HgN/A
5:00 AM62 °FCool.No wind92%29.96 "HgN/A
4:00 AM63 °FMild.1 mph91%29.97 "HgN/A
3:00 AM64 °FMild.1 mph88%29.96 "HgN/A
2:00 AM65 °FMild.1 mph87%29.96 "HgN/A
1:00 AM66 °FMild.2 mph84%29.97 "HgN/A
12:00 AM68 °FMild.No wind76%29.94 "HgN/A
11:00 PM
Wed, Jun 29
69 °FMild.1 mph72%29.92 "HgN/A
10:00 PM71 °FMild.1 mph68%29.91 "HgN/A
9:00 PM73 °FMild.1 mph62%29.90 "HgN/A
8:00 PM74 °FMild.2 mph58%29.89 "HgN/A
7:00 PM76 °FMild.3 mph53%29.88 "HgN/A
6:00 PM77 °FMild.3 mph52%29.89 "HgN/A
5:00 PM78 °FWarm.3 mph52%29.89 "HgN/A
Weather by CustomWeather, © 2016

See weather overviewHow to use our weather pages